Simultaneous Nadir Overpasses (SNOs) Predictions

Prediction of SNOs between GOES-17 and LANDSAT-8 Satellite Orbit:

Table of predicted SNOs for the next 14.0 days since TLE Epoch: 1/23/2022
Index Date Time (GOES-17) GOES-17 Lat,Lon LANDSAT-8 Lat,Lon Distance(km) Time Diff (sec)
1 01/24/2022 19:13:53 0.01,-137.23 -0.33,-135.71 173.29 80
2 01/25/2022 07:37:57 -0.01,-137.22 -0.77,-140.91 417.98 80
3 01/27/2022 07:25:44 -0.01,-137.21 -0.18,-137.94 82.77 80
4 01/29/2022 07:10:52 0.00,-137.20 0.47,-134.98 251.48 80
5 01/29/2022 19:34:47 -0.00,-137.20 0.64,-140.14 334.51 80
6 01/31/2022 19:19:55 -0.02,-137.17 -0.02,-137.18 1.28 80
7 02/02/2022 19:10:22 0.01,-137.15 -0.63,-134.22 333.34 80
8 02/03/2022 07:29:05 -0.01,-137.13 -0.52,-139.40 258.53 80
9 02/05/2022 07:19:32 -0.02,-137.10 0.10,-136.44 75.30 80
